This is the latest recevied weather packets stored in our database for station/object IU7URP-13. If no packets are shown the sender has not sent any weather packets the latest 1 day(s).
| Time | Temp. | Humidity | Pressure | Rain* | Wind** | Luminosity | Snow |
|---|---|---|---|---|---|---|---|
| 1778090281 | 16.67° C | 99% | 1018.7 hPa | - | - | - | - |
| 1778086677 | 17.78° C | 99% | 1018.6 hPa | - | - | - | - |
| 1778084275 | 18.33° C | 99% | 1018.4 hPa | - | - | - | - |
| 1778081872 | 18.33° C | 99% | 1018.3 hPa | - | - | - | - |
| 1778079355 | 18.89° C | 99% | 1018.5 hPa | - | - | - | - |
| 1778078097 | 18.89° C | 99% | 1018.7 hPa | - | - | - | - |
| 1778076895 | 19.44° C | 99% | 1018.6 hPa | - | - | - | - |
| 1778074491 | 19.44° C | 99% | 1018.5 hPa | - | - | - | - |
| 1778074062 | 19.44° C | 99% | 1018.6 hPa | - | - | - | - |
| 1778072075 | 21.67° C | 99% | 1018.8 hPa | - | - | - | - |
| 1778069554 | 21.67° C | 99% | 1018.5 hPa | - | - | - | - |
| 1778065948 | 21.11° C | 99% | 1019.5 hPa | - | - | - | - |
| 1778063544 | 21.67° C | 99% | 1019.4 hPa | - | - | - | - |
| 1778061140 | 21.67° C | 99% | 1019.7 hPa | - | - | - | - |
| 1778060788 | 21.11° C | 99% | 1019.8 hPa | - | - | - | - |
| 1778060380 | 21.11° C | 99% | 1019.7 hPa | - | - | - | - |
| 1778059178 | 21.67° C | 99% | 1019.5 hPa | - | - | - | - |
| 1778058371 | 21.11° C | 99% | 1019.5 hPa | - | - | - | - |
| 1778057541 | 20.56° C | 99% | 1019.5 hPa | - | - | - | - |
| 1778056303 | 21.11° C | 99% | 1019.5 hPa | - | - | - | - |
| 1778053092 | 20° C | 99% | 1019.6 hPa | - | - | - | - |
| 1778051890 | 19.44° C | 99% | 1019.7 hPa | - | - | - | - |
| 1778050258 | 18.33° C | 99% | 1019.6 hPa | - | - | - | - |
| 1778049881 | 17.78° C | 99% | 1019.6 hPa | - | - | - | - |
| 1778049044 | 17.22° C | 99% | 1019.5 hPa | - | - | - | - |
* Rain since midnight (hover to see other rain measurements)
** Current wind speed in m/s (hover to see current wind gust speed)